Theta_e
289 288 288 288 288 288 288 288 288 288 288 288 288 288 288 288 287 287 287 287 287 287 286 286 285 285 285 285 285 285 285 285 286 286 286 286 285 283 282 281 279 279
288 288 288 288 288 288 288 288 288 288 288 288 288 288 288 288 287 287 287 287 286 286 285 285 284 284 284 284 284 284 284 285 285 285 285 285 284 282 282 281 279 278
288 288 288 288 288 288 288 288 288 288 288 288 288 288 288 288 287 287 287 286 285 285 284 284 283 283 283 283 283 283 284 284 284 284 284 284 283 281 280 279 278 278
288 288 288 288 288 288 288 288 288 288 288 288 288 288 288 287 287 286 286 285 284 284 283 283 283 283 282 283 283 283 283 283 283 282 282 283 282 279 278 278 277 278
288 288 288 288 288 288 288 288 288 288 288 288 288 288 287 287 286 286 285 284 284 283 283 283 282 282 282 282 282 283 282 281 281 280 279 280 280 278 277 277 276 277
288 288 288 288 288 288 288 288 288 288 288 288 288 287 287 286 285 285 284 284 283 283 283 282 282 282 282 282 283 282 281 281 281 279 278 278 278 277 276 276 276 276
288 288 288 288 288 288 288 288 288 288 288 287 287 286 286 285 284 284 284 283 283 283 283 283 283 283 283 283 283 283 282 280 280 279 277 277 277 276 275 275 275 276
288 288 288 288 288 288 288 288 288 288 287 287 286 285 285 284 284 283 283 283 283 283 283 283 283 283 283 283 282 282 282 281 280 278 277 276 275 275 275 274 274 275
288 288 288 288 288 288 288 288 288 287 287 286 285 285 284 284 283 283 283 283 283 283 284 284 284 284 283 283 282 281 281 281 280 278 277 275 274 274 274 273 274 274
288 288 287 287 288 288 288 288 287 287 286 285 285 284 284 283 282 282 283 283 284 284 284 284 283 283 283 282 281 280 280 280 280 278 276 275 273 273 272 272 273 274
287 287 287 288 288 288 288 287 287 286 285 285 284 283 283 282 282 283 283 284 284 284 283 283 283 283 283 282 281 280 280 279 278 277 275 273 272 271 271 271 272 273
287 287 287 288 288 288 287 287 286 285 285 284 283 283 282 282 282 283 283 284 283 283 283 283 283 282 282 282 281 280 279 278 277 275 273 271 271 270 270 271 271 272
287 287 287 288 288 287 287 286 285 285 284 283 283 282 282 282 283 283 283 283 283 282 282 282 282 282 282 280 280 279 278 275 273 272 270 270 270 270 271 271 272 272
287 287 287 288 288 287 286 285 285 284 283 283 282 282 282 283 283 283 283 282 282 282 282 282 282 282 280 279 278 276 274 271 270 270 270 270 271 271 272 272 273 273
287 287 288 288 287 286 285 285 284 283 283 282 282 282 282 283 283 282 282 282 282 282 282 281 281 280 278 276 274 272 270 269 270 270 271 272 272 272 273 273 273 274
287 287 288 287 286 285 285 284 283 283 282 282 282 282 282 282 282 282 282 282 282 282 281 279 278 277 275 273 271 270 270 271 271 271 272 272 273 273 273 273 274 274
287 288 288 286 285 285 284 283 283 282 281 281 282 282 282 282 282 282 282 282 281 280 279 277 277 275 273 272 270 269 270 271 271 272 272 273 273 274 274 274 274 275
288 288 287 286 285 284 284 283 282 281 281 281 282 282 282 281 281 281 281 281 280 279 278 276 276 274 272 271 270 269 270 271 272 272 273 273 274 274 275 275 275 275
288 287 286 285 284 284 283 282 281 281 281 281 282 282 281 281 281 281 280 280 279 278 277 276 275 274 272 270 270 270 270 272 272 273 273 273 274 274 275 276 276 276
287 286 285 285 284 283 282 281 281 280 281 281 281 281 281 281 281 280 280 279 278 277 277 276 275 274 272 270 270 270 271 272 273 273 273 274 274 275 275 276 276 277
287 285 285 284 284 283 281 281 280 280 281 281 281 281 281 280 280 280 279 279 278 277 277 276 275 273 272 271 270 270 272 272 273 273 273 273 274 275 275 276 277 277
286 285 284 284 283 282 281 280 280 280 280 281 280 280 280 280 279 279 279 279 278 277 276 276 275 273 271 271 270 271 272 273 273 273 273 274 274 275 275 276 276 277
285 284 284 283 282 281 280 280 280 280 280 280 280 280 280 279 279 278 278 278 278 276 275 275 274 273 271 271 270 271 272 273 273 273 274 274 274 275 275 275 275 276
284 284 284 282 281 281 280 280 280 280 280 280 279 279 279 278 278 278 278 277 277 276 274 273 273 272 271 271 271 271 273 273 273 273 274 274 274 274 274 275 275 276
284 284 283 281 280 280 279 279 279 280 279 279 279 278 278 278 277 278 279 278 276 275 273 271 271 270 270 270 271 272 273 273 273 273 274 274 274 274 275 275 275 276
283 283 282 281 280 279 279 279 279 279 279 278 278 278 278 277 277 278 278 277 275 273 272 270 270 270 270 270 271 272 272 273 273 273 274 274 275 275 275 276 276 276
Wind_Speed
18 18 18 19 20 22 24 26 27 29 30 32 34 36 38 39 41 42 43 44 45 45 46 45 45 44 44 44 44 45 46 47 48 48 48 49 49 49 49 47 44 44
17 17 17 19 20 22 24 25 26 29 31 33 35 38 40 42 43 45 46 46 47 47 47 47 46 45 45 45 45 46 47 48 48 48 48 50 50 49 50 48 44 42
16 17 18 19 21 22 23 25 27 30 33 35 37 40 42 44 46 47 48 47 48 48 47 47 46 46 46 46 46 47 48 48 49 48 48 50 50 48 48 46 43 40
16 17 18 19 21 22 23 25 28 31 34 37 39 41 44 46 48 48 48 47 47 47 47 46 46 45 45 46 46 47 48 48 48 47 48 51 49 47 46 44 43 43
16 17 18 19 20 22 24 26 30 33 36 39 41 43 46 47 48 48 47 47 47 46 46 45 45 45 45 46 46 47 48 48 47 46 47 50 49 46 45 42 42 43
16 17 17 19 20 22 25 28 31 35 38 41 43 45 46 47 47 47 46 46 45 45 45 44 44 45 46 47 47 48 48 48 49 47 47 50 48 46 45 41 39 40
16 17 18 19 20 23 27 30 34 37 40 42 44 45 46 46 46 46 45 44 44 44 44 44 45 46 47 48 49 50 49 50 51 49 47 48 46 45 43 38 37 38
16 17 18 19 21 24 28 32 35 38 40 43 44 45 45 45 45 44 43 43 43 44 44 45 46 47 48 49 49 51 52 52 51 49 46 44 43 44 41 35 35 37
16 17 18 20 22 26 30 34 37 39 41 42 44 45 44 44 43 42 42 42 43 44 45 46 47 48 49 49 50 51 52 52 51 48 46 43 41 42 38 33 33 35
17 17 18 21 24 28 32 35 37 39 41 42 43 44 43 42 41 40 41 42 43 45 46 47 48 48 49 50 50 50 50 50 50 48 46 44 42 39 36 35 34 33
16 17 19 23 26 30 33 35 37 39 40 41 42 42 41 40 40 40 41 43 44 46 47 47 48 49 50 51 50 49 47 47 47 46 44 42 40 37 35 35 35 35
16 18 21 24 28 32 34 35 37 38 39 40 39 39 39 39 39 40 42 43 45 46 47 47 48 48 49 50 49 46 45 44 43 41 39 37 36 34 33 33 34 35
17 19 22 26 30 32 34 35 36 37 38 37 37 37 38 38 40 41 42 43 45 45 46 47 47 48 49 48 46 43 42 41 38 37 36 35 35 35 34 35 35 36
17 20 24 27 30 32 33 34 35 36 35 35 35 36 37 38 39 41 42 42 44 44 45 45 46 47 47 46 44 41 39 39 38 38 39 40 41 41 40 40 40 39
18 22 25 29 31 31 32 34 34 34 34 33 34 35 36 37 38 40 41 42 43 43 44 45 45 46 46 43 39 37 37 38 40 42 43 43 44 44 44 44 43 42
20 23 27 29 30 31 32 33 32 32 32 32 33 34 35 36 37 38 39 41 42 43 43 44 44 44 43 38 34 33 36 38 39 40 40 41 43 43 43 44 44 45
21 25 27 28 29 30 31 31 31 31 31 32 33 33 34 35 36 37 38 39 41 42 42 42 42 42 40 36 32 32 34 37 38 39 38 40 42 42 42 42 42 44
22 25 27 27 28 29 30 30 30 30 31 32 32 32 33 34 35 36 37 38 39 40 41 41 41 40 37 33 32 31 33 36 38 39 39 39 39 40 41 41 41 43
23 25 26 26 27 28 29 29 29 30 30 31 31 31 32 33 34 35 36 36 37 38 39 39 39 37 34 32 32 33 34 35 37 38 39 38 38 37 39 39 39 42
24 25 25 26 26 27 28 28 29 29 29 30 30 30 32 33 34 35 35 35 35 36 38 38 37 36 34 33 33 34 34 35 37 38 37 35 34 34 36 38 39 42
23 23 23 25 25 26 27 27 28 29 28 29 29 30 32 33 34 35 34 35 35 36 38 39 38 37 35 34 33 34 35 35 35 35 33 33 32 32 34 35 36 38
22 22 22 24 24 25 26 27 28 27 27 28 29 29 31 32 33 34 34 35 36 37 39 41 40 38 37 35 33 34 35 34 34 34 34 33 33 33 33 33 33 35
20 20 21 22 23 24 25 26 27 26 26 28 29 30 31 32 33 34 34 35 36 38 40 42 43 41 39 36 33 33 34 34 35 36 35 34 33 33 34 36 36 37
19 19 20 21 22 24 25 25 26 25 26 27 28 30 31 31 33 34 34 35 36 38 39 41 43 43 40 37 34 33 34 35 35 36 35 35 34 34 34 36 37 37
17 18 19 20 21 23 24 25 25 25 25 26 27 29 31 31 32 35 36 36 37 39 39 40 42 42 40 36 34 33 34 35 35 36 36 36 36 37 39 39 39 39
15 16 18 19 20 22 22 23 24 24 25 25 26 28 30 31 32 35 37 39 39 39 39 38 39 40 38 34 33 33 34 34 35 37 38 39 40 41 43 43 40 39
Wind_Direction
277 284 291 297 302 306 308 311 316 318 318 316 315 315 315 315 315 314 313 311 310 308 306 305 303 301 300 298 297 295 294 294 294 295 294 293 292 291 290 288 284 280
275 282 289 295 299 303 306 311 317 316 315 315 315 315 315 315 315 314 313 311 310 308 306 305 304 303 302 300 299 297 296 295 295 295 294 293 294 291 289 289 284 278
273 280 287 293 297 302 307 314 317 315 315 315 315 315 315 315 314 313 313 312 310 308 307 306 305 304 302 301 300 298 297 296 295 296 295 295 295 291 290 289 283 276
270 277 284 292 296 303 311 316 316 315 315 314 314 315 314 314 314 314 314 313 311 310 309 308 306 305 303 302 301 299 298 297 297 297 296 295 294 291 289 286 281 278
268 276 285 292 298 307 314 316 316 315 315 314 315 315 315 315 315 315 315 314 313 312 311 309 307 305 304 303 303 301 299 298 297 296 294 294 293 289 288 284 279 279
268 277 285 293 302 311 316 316 316 315 315 315 316 316 317 317 316 316 316 315 314 313 312 310 308 307 306 305 304 302 300 297 297 297 294 294 293 288 287 282 276 276
268 278 286 296 307 314 316 316 316 315 316 316 317 318 318 318 318 317 317 316 315 314 312 310 309 308 308 307 305 303 301 299 299 299 297 295 293 288 284 279 276 275
270 280 290 301 311 315 315 315 315 315 317 318 319 320 319 319 319 318 318 317 315 313 312 310 310 310 309 308 306 303 302 301 300 300 297 293 289 286 282 276 276 274
274 284 296 306 312 313 313 314 314 317 319 320 320 320 320 320 319 319 317 316 314 313 312 311 311 311 309 307 305 302 302 302 301 300 296 290 284 282 279 275 275 273
277 289 301 309 311 311 312 314 316 319 321 322 322 320 320 320 319 318 317 315 314 312 312 312 312 312 309 307 304 303 304 303 301 298 294 290 285 279 277 276 274 271
282 295 305 309 310 311 313 316 319 322 323 323 323 321 320 320 318 318 316 315 314 314 314 315 313 312 309 306 305 306 306 302 298 297 294 292 289 283 279 278 274 271
287 300 306 308 310 311 315 319 322 324 324 324 323 321 320 319 319 318 316 315 316 316 316 315 313 312 309 307 308 309 306 301 299 299 298 296 294 290 286 282 277 276
292 303 306 308 310 313 318 322 324 324 325 324 322 320 320 320 319 318 317 317 317 317 317 316 314 313 311 311 314 312 307 305 304 304 303 301 299 297 295 291 286 284
296 303 306 308 312 316 321 324 325 325 324 323 322 321 320 320 318 318 318 318 319 318 318 317 316 315 316 318 320 317 312 310 309 306 304 304 303 301 299 297 294 291
299 304 307 309 314 319 324 325 325 325 324 323 322 321 320 319 318 319 320 319 320 320 320 321 321 320 322 324 323 316 310 307 303 302 301 300 300 299 297 296 294 293
301 305 307 311 318 323 325 325 325 324 323 322 322 321 320 319 320 321 322 321 322 324 325 325 324 324 325 326 318 305 300 298 296 295 295 293 294 293 291 291 290 292
302 305 308 315 321 325 325 325 324 324 323 322 322 321 320 320 322 323 324 326 327 328 328 327 327 328 328 326 316 303 297 296 294 294 292 290 291 289 287 286 285 287
302 306 312 319 324 325 325 324 324 323 322 322 321 322 321 322 324 326 328 331 331 331 330 330 331 332 330 326 318 307 302 299 296 296 294 292 291 288 287 286 283 283
303 308 316 322 324 325 324 324 323 322 322 322 322 323 323 324 327 329 332 334 333 333 333 334 336 337 335 330 320 309 305 302 299 298 296 293 291 288 287 286 282 284
305 311 319 323 324 324 323 323 322 322 321 322 323 324 325 327 329 331 334 336 336 336 336 338 342 342 340 334 321 310 307 305 302 301 298 294 293 290 288 288 286 287
307 314 320 323 323 322 323 322 321 321 322 322 324 326 326 329 331 332 335 337 339 341 340 342 346 347 344 338 325 314 311 309 305 304 303 300 297 293 291 291 290 288
309 316 321 322 322 321 321 321 319 321 322 323 325 327 328 330 332 333 336 339 341 345 344 343 348 351 348 341 329 317 314 312 312 313 310 304 299 296 293 291 288 285
310 317 320 320 320 320 320 319 319 321 324 324 326 328 330 332 332 333 337 341 345 348 346 345 348 351 350 343 331 321 318 317 316 316 311 303 299 297 295 293 290 286
311 317 319 318 319 319 318 318 319 322 325 326 328 329 331 333 332 332 338 344 348 349 348 346 346 348 349 344 331 322 320 319 316 313 309 305 302 300 298 296 294 290
311 316 316 316 318 318 317 317 320 323 325 327 330 330 330 333 333 333 338 346 350 351 351 349 344 343 344 340 328 321 321 321 318 314 310 308 304 302 303 301 296 294
312 315 314 315 317 317 315 317 320 323 326 329 330 331 331 332 334 336 341 347 351 350 349 347 343 340 340 334 326 324 324 322 319 316 312 310 308 307 307 305 300 297